When you browse on this site, cookies collect data to enhance your experience and personalize the content and advertising you see.
Visit our Privacy Policy to learn more. By continuing to use the site, you agree to this use of cookies and data.
  • In Hungary
  • List of Countries
  • For 7 days
  • Water Temperature
  • Satellite Maps
  • Weather Map
  • News
  • Weather Widgets
  • user-avatar
    Login

    Hourly Weather Bulkowo

    Today, 16 January, Wednesday

    Time Temperature Precipitation Wind Pressure Humidity
    00:00 -2°C° 1 mm 6 mps 712 mmHg 91%
    01:00 0°C° 0 mm 3 mps 712 mmHg 93%
    02:00 -1°C° 1.1 mm 4 mps 712 mmHg 92%
    03:00 -1°C° 1.1 mm 5 mps 713 mmHg 92%
    04:00 -1°C° 1.1 mm 6 mps 713 mmHg 91%
    05:00 0°C° 0.8 mm 5 mps 713 mmHg 93%
    06:00 -1°C° 0.8 mm 5 mps 713 mmHg 94%
    07:00 -1°C° 0.8 mm 4 mps 714 mmHg 95%
    08:00 -1°C° 0.5 mm 4 mps 714 mmHg 96%
    09:00 0°C° 0.5 mm 4 mps 714 mmHg 97%
    10:00 +1°C° 0.5 mm 3 mps 715 mmHg 98%
    11:00 +1°C° 0.1 mm 3 mps 715 mmHg 98%
    12:00 +1°C° 0.1 mm 3 mps 715 mmHg 99%
    13:00 +1°C° 0.1 mm 3 mps 715 mmHg 99%
    14:00 +1°C° 0 mm 3 mps 715 mmHg 97%
    15:00 0°C° 0 mm 3 mps 716 mmHg 95%
    16:00 0°C° 0 mm 3 mps 716 mmHg 94%
    17:00 0°C° 0 mm 3 mps 716 mmHg 93%
    18:00 -1°C° 0 mm 3 mps 715 mmHg 92%
    19:00 -1°C° 0 mm 3 mps 715 mmHg 91%
    20:00 -1°C° 0 mm 3 mps 715 mmHg 90%
    21:00 -1°C° 0 mm 3 mps 715 mmHg 90%
    22:00 -1°C° 0 mm 3 mps 715 mmHg 89%
    23:00 -1°C° 0 mm 3 mps 715 mmHg 88%

    Tomorrow, 17 January, Thursday

    Time Temperature Precipitation Wind Pressure Humidity
    00:00 -1°C° 0 mm 3 mps 714 mmHg 86%
    01:00 -2°C° 0 mm 4 mps 714 mmHg 85%
    02:00 -2°C° 0 mm 4 mps 714 mmHg 81%
    03:00 -2°C° 0 mm 4 mps 713 mmHg 77%
    04:00 -2°C° 0 mm 4 mps 713 mmHg 74%
    05:00 -2°C° 0 mm 4 mps 713 mmHg 73%
    06:00 -1°C° 0 mm 4 mps 713 mmHg 72%
    07:00 -1°C° 0 mm 5 mps 713 mmHg 71%
    08:00 -1°C° 0 mm 5 mps 713 mmHg 72%
    09:00 0°C° 0 mm 5 mps 713 mmHg 73%
    10:00 -1°C° 0 mm 6 mps 713 mmHg 75%
    11:00 +1°C° 0 mm 5 mps 713 mmHg 78%
    12:00 +1°C° 0 mm 5 mps 713 mmHg 81%
    13:00 +1°C° 0 mm 5 mps 713 mmHg 84%
    14:00 0°C° 0 mm 5 mps 713 mmHg 84%
    15:00 0°C° 0 mm 4 mps 713 mmHg 84%
    16:00 0°C° 0 mm 4 mps 713 mmHg 85%
    17:00 0°C° 0 mm 4 mps 713 mmHg 84%
    18:00 0°C° 0 mm 4 mps 713 mmHg 84%
    19:00 0°C° 0 mm 4 mps 713 mmHg 84%
    20:00 0°C° 0 mm 5 mps 713 mmHg 85%
    21:00 0°C° 0 mm 5 mps 713 mmHg 85%
    22:00 0°C° 0 mm 5 mps 713 mmHg 86%
    23:00 0°C° 0 mm 5 mps 713 mmHg 86%

    Day after tomorrow, 18 January, Friday

    Time Temperature Precipitation Wind Pressure Humidity
    00:00 -1°C° 0 mm 5 mps 713 mmHg 86%
    01:00 -1°C° 0 mm 5 mps 714 mmHg 86%
    02:00 -2°C° 0.1 mm 5 mps 714 mmHg 83%
    03:00 -2°C° 0.1 mm 5 mps 714 mmHg 80%
    04:00 -4°C° 0.1 mm 5 mps 714 mmHg 77%
    05:00 -5°C° 0 mm 5 mps 715 mmHg 78%
    06:00 -5°C° 0 mm 5 mps 715 mmHg 80%
    07:00 -6°C° 0 mm 5 mps 715 mmHg 81%
    08:00 -5°C° 0 mm 6 mps 716 mmHg 79%
    09:00 -5°C° 0 mm 6 mps 717 mmHg 78%
    10:00 -5°C° 0 mm 6 mps 718 mmHg 76%
    11:00 -4°C° 0.1 mm 6 mps 718 mmHg 76%
    12:00 -4°C° 0.1 mm 6 mps 719 mmHg 75%
    13:00 -2°C° 0.1 mm 5 mps 719 mmHg 75%
    14:00 -3°C° 0 mm 4 mps 720 mmHg 77%
    15:00 -2°C° 0 mm 3 mps 720 mmHg 79%
    16:00 -3°C° 0 mm 2 mps 721 mmHg 81%
    17:00 -4°C° 0 mm 2 mps 721 mmHg 83%
    18:00 -4°C° 0 mm 2 mps 722 mmHg 85%
    19:00 -3°C° 0 mm 1 mps 722 mmHg 87%
    20:00 -3°C° 0 mm 1 mps 722 mmHg 88%
    21:00 -3°C° 0 mm 1 mps 723 mmHg 89%
    22:00 -3°C° 0 mm 1 mps 723 mmHg 90%
    23:00 -3°C° 0 mm 1 mps 723 mmHg 90%

    19 January, Saturday

    Time Temperature Precipitation Wind Pressure Humidity
    00:00 -4°C° 0 mm 1 mps 723 mmHg 89%
    01:00 -6°C° 0 mm 1 mps 723 mmHg 89%
    02:00 -6°C° 0 mm 1 mps 723 mmHg 88%
    03:00 -6°C° 0 mm 1 mps 722 mmHg 87%
    04:00 -6°C° 0 mm 1 mps 722 mmHg 86%
    05:00 -6°C° 0 mm 1 mps 722 mmHg 85%
    06:00 -7°C° 0 mm 1 mps 722 mmHg 84%
    07:00 -8°C° 0 mm 2 mps 722 mmHg 82%
    08:00 -6°C° 0 mm 1 mps 722 mmHg 80%
    09:00 -4°C° 0 mm 1 mps 723 mmHg 78%
    10:00 -3°C° 0 mm 1 mps 723 mmHg 76%
    11:00 -2°C° 0 mm 1 mps 723 mmHg 74%
    12:00 -1°C° 0 mm 1 mps 722 mmHg 72%
    13:00 -1°C° 0 mm 0 mps 722 mmHg 70%
    14:00 -2°C° 0 mm 0 mps 722 mmHg 73%
    15:00 -3°C° 0 mm 0 mps 721 mmHg 77%
    16:00 -3°C° 0 mm 1 mps 721 mmHg 81%
    17:00 -3°C° 0 mm 1 mps 721 mmHg 81%
    18:00 -3°C° 0 mm 1 mps 721 mmHg 82%
    19:00 -4°C° 0 mm 1 mps 721 mmHg 83%
    20:00 -4°C° 0 mm 1 mps 721 mmHg 83%
    21:00 -4°C° 0 mm 1 mps 721 mmHg 83%
    22:00 -4°C° 0 mm 1 mps 721 mmHg 83%
    23:00 -4°C° 0 mm 1 mps 721 mmHg 84%

    20 January, Sunday

    Time Temperature Precipitation Wind Pressure Humidity
    00:00 -4°C° 0 mm 1 mps 721 mmHg 84%
    01:00 -5°C° 0 mm 0 mps 720 mmHg 84%
    02:00 -6°C° 0 mm 0 mps 720 mmHg 85%
    03:00 -6°C° 0 mm 0 mps 720 mmHg 85%
    04:00 -6°C° 0 mm 0 mps 720 mmHg 85%
    05:00 -6°C° 0 mm 0 mps 720 mmHg 86%
    06:00 -7°C° 0 mm 0 mps 720 mmHg 87%
    07:00 -7°C° 0 mm 0 mps 720 mmHg 87%
    08:00 -6°C° 0 mm 0 mps 720 mmHg 86%
    09:00 -5°C° 0 mm 0 mps 721 mmHg 84%
    10:00 -4°C° 0 mm 0 mps 721 mmHg 83%
    11:00 -2°C° 0 mm 1 mps 721 mmHg 80%
    12:00 -2°C° 0 mm 1 mps 721 mmHg 77%
    13:00 -1°C° 0 mm 1 mps 721 mmHg 74%
    14:00 -2°C° 0 mm 1 mps 721 mmHg 77%
    15:00 -3°C° 0 mm 1 mps 721 mmHg 79%
    16:00 -3°C° 0 mm 1 mps 721 mmHg 82%
    17:00 -4°C° 0 mm 1 mps 722 mmHg 82%
    18:00 -6°C° 0 mm 0 mps 722 mmHg 83%
    19:00 -6°C° 0 mm 0 mps 722 mmHg 83%
    20:00 -6°C° 0 mm 1 mps 723 mmHg 84%
    21:00 -7°C° 0 mm 1 mps 723 mmHg 84%
    22:00 -7°C° 0 mm 1 mps 724 mmHg 85%
    23:00 -6°C° 0 mm 1 mps 724 mmHg 86%

    21 January, Monday

    Time Temperature Precipitation Wind Pressure Humidity
    00:00 -4°C° 0 mm 1 mps 724 mmHg 88%
    01:00 -4°C° 0 mm 1 mps 725 mmHg 89%
    02:00 -4°C° 0.1 mm 1 mps 725 mmHg 91%
    03:00 -4°C° 0.1 mm 1 mps 725 mmHg 92%
    04:00 -3°C° 0.1 mm 1 mps 726 mmHg 94%
    05:00 -4°C° 0.1 mm 1 mps 726 mmHg 94%
    06:00 -4°C° 0.1 mm 1 mps 726 mmHg 94%
    07:00 -6°C° 0.1 mm 1 mps 727 mmHg 95%
    08:00 -4°C° 0 mm 1 mps 727 mmHg 92%
    09:00 -4°C° 0 mm 1 mps 728 mmHg 90%
    10:00 -3°C° 0 mm 1 mps 728 mmHg 87%
    11:00 -3°C° 0 mm 1 mps 729 mmHg 83%
    12:00 -3°C° 0 mm 1 mps 729 mmHg 79%
    13:00 -2°C° 0 mm 1 mps 729 mmHg 75%
    14:00 -3°C° 0 mm 1 mps 729 mmHg 77%
    15:00 -3°C° 0 mm 1 mps 729 mmHg 79%
    16:00 -4°C° 0 mm 1 mps 729 mmHg 81%
    17:00 -6°C° 0 mm 1 mps 729 mmHg 82%
    18:00 -7°C° 0 mm 1 mps 729 mmHg 84%
    19:00 -8°C° 0 mm 1 mps 729 mmHg 85%
    20:00 -8°C° 0 mm 1 mps 729 mmHg 86%
    21:00 -8°C° 0 mm 1 mps 729 mmHg 86%
    22:00 -9°C° 0 mm 1 mps 729 mmHg 86%
    23:00 -10°C° 0 mm 2 mps 729 mmHg 85%
    Show more